Regional Weather Roundup
Issued by NWS

Home | Current Version | Previous Version | Graphics & Text | Print | Product List | Glossary On
Versions: 1 2 3 4 5 6 7 8 9 10 11 12 13 14 15 16 17 18 19 20 21 22 23 24 25 26 27 28 29 30 31 32 33 34 35 36 37 38 39 40 41 42 43 44 45 46 47 48 49 50
000
ASUS43 KLOT 021800
RWRIL

ILLINOIS REGIONAL WEATHER ROUNDUP
NATIONAL WEATHER SERVICE CHICAGO/ROMEOVILLE IL
100 PM CDT SUN AUG 02 2015

NOTE: "FAIR" INDICATES FEW OR NO CLOUDS BELOW 12,000 FEET WITH NO
SIGNIFICANT WEATHER AND/OR OBSTRUCTIONS TO VISIBILITY.

* THESE STATIONS ARE NOT UNDER NWS QUALITY CONTROL. THEY ALSO MAY NOT
  REPORT WEATHER SUCH AS PRECIPITATION OR FOG.

ILZ001-002-007-009-015-016-024-021900-
NORTHWEST ILLINOIS

CITY           SKY/WX    TMP DP  RH WIND       PRES   REMARKS
MOLINE         MOSUNNY   89  70  53 SW18G24   29.80F HX  94
6HR MIN TEMP:  71; 6HR MAX TEMP:  89; 6HR PCP: TRACE;

STERLING*      MOSUNNY   88  70  55 W13G22    29.76F HX  92
$$

ILZ003-004-008-010-011-017-018-021900-
NORTH CENTRAL ILLINOIS

CITY           SKY/WX    TMP DP  RH WIND       PRES   REMARKS
ROCKFORD       MOSUNNY   88  68  51 SW15G26   29.78F HX  91
6HR MIN TEMP:  70; 6HR MAX TEMP:  88;

$$

ILZ005-006-012>014-019>023-021900-
NORTHEAST ILLINOIS

CITY           SKY/WX    TMP DP  RH WIND       PRES   REMARKS
CHICAGO-OHARE  MOSUNNY   89  63  41 SW14G31   29.78F HX  90
6HR MIN TEMP:  72; 6HR MAX TEMP:  89;

CHICAGO-MIDWAY MOSUNNY   92  62  36 SW20G31   29.79F HX  92
6HR MIN TEMP:  73; 6HR MAX TEMP:  93;

AURORA         MOSUNNY   89  67  47 SW18G25   29.81F HX  92
6HR MIN TEMP:  70; 6HR MAX TEMP:  89;

WAUKEGAN       PTSUNNY   88  67  49 SW18G25   29.74F HX  91
6HR MIN TEMP:  72; 6HR MAX TEMP:  89;

DUPAGE AIRPORT MOSUNNY   89  65  44 SW17G29   29.80F HX  91
6HR MIN TEMP:  70; 6HR MAX TEMP:  89;

WHEELING       SUNNY     91  63  39 SW20G29   29.77F HX  92
6HR MIN TEMP:  72; 6HR MAX TEMP:  91;

NORTHERLY ISL    N/A     88  60  38 SW13        N/A  HX  87
$$

LMZ740>746-021900-
SOUTHERN LAKE MICHIGAN

STATION/POSITION SKY/WX   TEMP    WIND        PRES    VSBY  WAVE
                          AIR SEA DIR/SP/G                  HT/PER
                          (F)     (DEG/KT/KT) (MB)    (MI)  (FT/S)
HARRISON CRIB              84     240/ 21/ 31   N/A
BURNHAM HARBOR             87     260/ 10/ 18   N/A
CALUMET HARBOR             87     210/ 14/ 23   N/A
BURNS HARBOR               86     230/ 16/ 26 1009.5F
MICHIGAN CITY              83     200/ 19/ 24   N/A
MICHIGAN CITY 6N           79 74  240/ 12/ 16   N/A           2/ 3
ST. JOSEPH                 76 74  250/ 10/ 12   N/A           2/ 3
$$

ILZ025>027-034>036-040-047-049-050-058-095>099-021900-
WEST-CENTRAL ILLINOIS

CITY           SKY/WX    TMP DP  RH WIND       PRES   REMARKS
QUINCY         MOSUNNY   89  71  55 SW14      29.88F HX  95
MACOMB*        SUNNY     87  72  61 SW13      29.88S HX  93
$$

ILZ028>032-037-038-041>044-048-051>054-059>061-021900-
CENTRAL ILLINOIS

CITY           SKY/WX    TMP DP  RH WIND       PRES   REMARKS
DECATUR        PTSUNNY   87  70  56 SW10      29.91F HX  92
PEORIA         MOSUNNY   90  70  51 SW15      29.85F HX  95
6HR MIN TEMP:  71; 6HR MAX TEMP:  91;

SPRINGFIELD    MOSUNNY   88  73  61 SW9       29.89F HX  95
6HR MIN TEMP:  73; 6HR MAX TEMP:  89; 6HR PCP: TRACE;

TAYLORVILLE    NOT AVBL
$$

ILZ033-039-045-046-055>057-062-063-021900-
EAST-CENTRAL ILLINOIS

CITY           SKY/WX    TMP DP  RH WIND       PRES   REMARKS
CHAMPAIGN      MOSUNNY   86  70  58 SW13      29.91F HX  90
MATTOON        MOSUNNY   87  69  54 SW10      29.92F HX  91
$$

ILZ079-100>102-021900-
SOUTHWEST ILLINOIS

CITY           SKY/WX    TMP DP  RH WIND       PRES   REMARKS
CAHOKIA*       MOSUNNY   93  68  43 W6        29.90F HX  97
$$

ILZ064>066-069>071-074>076-080>082-084>086-088>090-092>094-021900-
SOUTH-CENTRAL ILLINOIS

CITY           SKY/WX    TMP DP  RH WIND       PRES   REMARKS
CARBONDALE     SUNNY     88  72  58 SW8       29.95F HX  94
6HR MIN TEMP:  70; 6HR MAX TEMP:  88;

MT. VERNON     SUNNY     90  72  55 S12       29.95F HX  96
SALEM*         MOSUNNY   89  69  51 SW8       29.94F HX  93
$$

ILZ067-068-072-073-078-083-087-091-021900-
SOUTHEAST ILLINOIS

CITY           SKY/WX    TMP DP  RH WIND       PRES   REMARKS
LAWRENCEVILLE  SUNNY     88  69  53 S10       29.95F HX  92
HARRISBURG*    SUNNY     86  69  57 S6        29.97F HX  90
$$

ABBREVIATIONS USED IN REMARKS
   TC - TEMPERATURE IN CELSIUS
  WCI - WIND CHILL INDEX
   HX - HEAT INDEX
  VSB - VISIBILITY
$$




USA.gov is the U.S. government's official web portal to all federal, state and local government web resources and services.